TimeEST,TemperatureF,Dew PointF,Humidity,Sea Level PressureIn,VisibilityMPH,Wind Direction,Wind SpeedMPH,Gust SpeedMPH,PrecipitationIn,Events,Conditions,WindDirDegrees,DateUTC
12:52 AM,19.9,7.0,57,30.26,10.0,Calm,Calm,-,N/A,,Overcast,0,2014-03-05 05:52:00
1:52 AM,19.0,9.0,65,30.26,10.0,Calm,Calm,-,N/A,,Overcast,0,2014-03-05 06:52:00
2:52 AM,19.0,9.0,65,30.25,10.0,Calm,Calm,-,N/A,,Overcast,0,2014-03-05 07:52:00
3:52 AM,19.0,10.0,68,30.24,10.0,North,3.5,-,N/A,,Overcast,350,2014-03-05 08:52:00
4:52 AM,19.0,10.0,68,30.25,10.0,Calm,Calm,-,N/A,,Overcast,0,2014-03-05 09:52:00
5:52 AM,19.0,10.0,68,30.26,10.0,Calm,Calm,-,N/A,,Overcast,0,2014-03-05 10:52:00
6:52 AM,19.0,10.9,71,30.27,10.0,NNW,3.5,-,N/A,,Overcast,330,2014-03-05 11:52:00
7:52 AM,19.9,10.9,68,30.29,10.0,NNW,4.6,-,N/A,,Overcast,340,2014-03-05 12:52:00
8:52 AM,21.0,10.9,65,30.29,10.0,Calm,Calm,-,N/A,,Overcast,0,2014-03-05 13:52:00
9:52 AM,21.9,12.0,66,30.30,10.0,Calm,Calm,-,N/A,,Overcast,0,2014-03-05 14:52:00
10:52 AM,21.9,12.9,68,30.31,5.0,North,3.5,-,0.00,Snow,Light Snow,350,2014-03-05 15:52:00
11:52 AM,24.1,12.9,62,30.29,10.0,Calm,Calm,-,0.00,,Overcast,0,2014-03-05 16:52:00
12:52 PM,34.0,12.9,42,30.27,10.0,Calm,Calm,-,N/A,,Overcast,0,2014-03-05 17:52:00
1:52 PM,34.0,12.0,40,30.27,10.0,Calm,Calm,-,N/A,,Overcast,0,2014-03-05 18:52:00
2:52 PM,35.1,12.0,39,30.28,10.0,NNE,6.9,-,N/A,,Overcast,20,2014-03-05 19:52:00
3:52 PM,32.0,12.0,44,30.30,10.0,NNW,8.1,-,N/A,,Overcast,340,2014-03-05 20:52:00
4:52 PM,30.0,12.9,49,30.32,10.0,NNW,10.4,-,N/A,,Overcast,340,2014-03-05 21:52:00
5:52 PM,26.1,9.0,49,30.36,10.0,NNW,5.8,-,N/A,,Overcast,340,2014-03-05 22:52:00
6:52 PM,25.0,8.1,49,30.39,10.0,NNW,8.1,-,N/A,,Clear,340,2014-03-05 23:52:00
7:52 PM,24.1,9.0,53,30.42,10.0,North,12.7,-,N/A,,Clear,350,2014-03-06 00:52:00
8:52 PM,21.0,8.1,57,30.45,10.0,NNW,9.2,-,N/A,,Clear,340,2014-03-06 01:52:00
9:52 PM,19.9,3.0,48,30.48,10.0,North,8.1,-,N/A,,Clear,360,2014-03-06 02:52:00
10:52 PM,18.0,1.9,50,30.51,10.0,North,8.1,-,N/A,,Clear,350,2014-03-06 03:52:00
11:52 PM,15.1,1.9,56,30.52,10.0,NNW,5.8,-,N/A,,Clear,340,2014-03-06 04:52:00